Back to catalog

STARLINK-34518

AliveCommunicationsVLEO
NORAD 64480·PAYLOAD·🇺🇸 United States

Launched Jun 23, 2025 from Cape Canaveral Space Force Station

Loading…

Next Passes (next 24 hours)

TLE

FreshSource: CelesTrak SupGP

Epoch: Sep 14, 2026, 14:31 UTC

1 64480C 25133J   26257.60534722  .00009448  00000+0  27929-3 0  2570
2 64480  53.1573 317.1161 0001261  82.1584 262.4083 15.34369809    10

Track STARLINK-34518 in real time with AllMySat

Download on the App Store